Regional Weather Roundup
Issued by NWS Upton, NY

Current Version | Previous Version | Graphics & Text | Print | Product List | Glossary Off
Versions: 1 2 3 4 5 6 7 8 9 10 11 12 13 14 15 16 17 18 19 20 21 22 23 24 25 26 27 28 29 30

000
ASUS41 KOKX 302005
RWROKX

REGIONAL WEATHER ROUNDUP
NATIONAL WEATHER SERVICE NEW YORK NY
400 PM EDT THU OCT 30 2014

NOTE: "FAIR" INDICATES FEW OR NO CLOUDS BELOW 12,000 FEET WITH NO
SIGNIFICANT WEATHER AND/OR OBSTRUCTIONS TO VISIBILITY.

NYZ071-072-176-178-NJZ106-104-302100-
NEW YORK CITY METRO AREA


CITY           SKY/WX    TMP DP  RH WIND       PRES   REMARKS
CENTRAL PARK   MOSUNNY   56  33  42 VRB3      29.99S
LAGUARDIA APRT MOSUNNY   57  37  47 NW13      29.96S
KENNEDY INTL   MOSUNNY   58  35  42 NW14      29.97F
NEWARK/LIBERTY MOSUNNY   57  35  43 NW10G21   29.97S
BRNX BOT. GARD   N/A     57  34  41 W3        29.99S
TETERBORO      SUNNY     58  34  40 NW9       29.97R
$$

NYZ177-179-078>081-302100-
LONG ISLAND NEW YORK

CITY           SKY/WX    TMP DP  RH WIND       PRES   REMARKS
FARMINGDALE    SUNNY     59  35  40 NW10G17   29.96S
ISLIP          MOSUNNY   59  37  44 NW9       29.94S
SHIRLEY        MOSUNNY   59  39  47 NW7       29.96S
WESTHAMPTON    MOSUNNY   59  39  47 VRB6      29.96S
MONTAUK POINT    N/A     58  40  51 W7        29.95S
$$

NYZ052-065-067-302100-
HUDSON VALLEY

CITY           SKY/WX    TMP DP  RH WIND       PRES   REMARKS
WHITE PLAINS   PTSUNNY   56  34  43 NW10      29.95S
NEWBURGH       PTSUNNY   54  37  54 NW12G18   29.98S
MONTGOMERY       N/A    N/A N/A N/A MISG      29.97S
POUGHKEEPSIE   PTSUNNY   56  35  45 VRB5      29.96S
ALBANY         PTSUNNY   53  36  52 W14       29.97R
$$

NJZ001-105-106-008-010-013-015-019>022-104-302100-
NEW JERSEY

CITY           SKY/WX    TMP DP  RH WIND       PRES   REMARKS
NEWARK/LIBERTY MOSUNNY   57  35  43 NW10G21   29.97S
TETERBORO      SUNNY     58  34  40 NW9       29.97R
CALDWELL       PTSUNNY   55  34  45 N6        29.99R
MORRISTOWN     PTSUNNY   57  36  44 N12G17    29.99R
SOMERVILLE     PTSUNNY   58  35  42 N10       29.97S
SUSSEX         CLOUDY    53  34  48 NW6       30.00S
ANDOVER          N/A     50  34  54 N8        30.00R
TRENTON        PTSUNNY   56  35  45 N9        29.98S
MILLVILLE      CLOUDY    58  38  47 NW7       29.98S
ATLANTIC CITY  CLOUDY    58  37  45 NW7       29.97S
WRIGHTSTOWN    PTSUNNY   58  38  48 NW12      29.96S
TOMS RIVER     MOSUNNY   57  37  47 W6        29.98S
BELMAR         PTSUNNY   59  36  41 NW15      29.97S
$$

PAZ047>061-062-071-302100-
EASTERN PENNSYLVANIA

CITY           SKY/WX    TMP DP  RH WIND       PRES   REMARKS
PHILADELPHIA   PTSUNNY   58  35  42 NW9       29.99F
ALLENTOWN      CLOUDY    55  34  45 NW10      30.00S
SCRANTON       CLOUDY    50  33  52 N8        30.01S
$$

CTZ002-004>006-009-010-012-RIZ004-006-007-MAZ004-011-015-302100-
SOUTHERN NEW ENGLAND
 IN CT

CITY           SKY/WX    TMP DP  RH WIND       PRES   REMARKS
BRADLEY INTL   PTSUNNY   58  36  43 W8        29.94S
HARTFORD       CLOUDY    55  36  48 W8        29.95R
DANBURY        CLOUDY    54  33  45 NW7       29.97S
WTRBRY/OXFORD  PTSUNNY   54  34  47 NW8       29.96R
BRIDGEPORT     CLOUDY    58  37  45 N3        29.95R
MERIDEN        CLOUDY    56  35  45 N10       29.95R
NEW HAVEN      PTSUNNY   59  36  42 NW9       29.95R
CHESTER        FAIR      55  36  47 N10       29.95R
GROTON         MOSUNNY   58  37  45 NW12      29.93R
WILLIMANTIC    CLOUDY    55  35  47 NW10      29.95R

 IN RI

CITY           SKY/WX    TMP DP  RH WIND       PRES   REMARKS
PROVIDENCE     MOSUNNY   59  36  42 W12       29.93R
BLOCK ISLAND   SUNNY     59  37  44 W13       29.93S
WESTERLY       SUNNY     60  34  37 VRB6      29.93S

 IN MA

CITY           SKY/WX    TMP DP  RH WIND       PRES   REMARKS
BOSTON         PTSUNNY   57  36  45 W12       29.92R
WORCESTER      CLOUDY    50  34  54 W9        29.93R
WESTFIELD      PTSUNNY   53  35  50 W10       29.95R
PROVINCETOWN   MOSUNNY   57   1  10 N5        29.92S
NANTUCKET      SUNNY     59  42  53 SW9       29.92R
$$

ANZ330-335-338-340-345-350-353-355-302100-
COASTAL MARINE OBSERVATIONS


STATION/POSITION TIME  SKY/WX   TEMP    WIND        PRES    VSBY  WAVE
                                AIR SEA DIR/SP/G                  HT/PER
                 (UTC)          (F)     (DEG/KT/KT) (MB)    (MI)  (FT/S)
NY HARB ENTRANCE 2000            57 61  300/ 12/ 16 1014.7          2/ 8
4S FIRE IS       2000               62                N/A           2/ 7
20S FIRE ISLAND  2000            57 63  330/ 10/ 12 1014.3          2/ 7
23SW MTP         2000                                 N/A           2/ 7
HUDSON CANYON    2000            58 65  300/ 12/ 14 1013.9          2/ 8
EXECUTION ROCKS  2000            59 60  290/ 12/ 16   N/A
WESTERN LI SOUND 2000            57     300/ 10/ 14   N/A           1
CENTRAL LI SOUND 1900            56 62  280/ 10/ 14   N/A           0
EASTERN LI SOUND 1900            58 62  280/ 10/ 14   N/A
ROBBINS REEF     2000            56     310/ 14/ 17 1013.5
$$


>>>>>>>>>>>>>>>>>>>>>>>>>>>> KEY <<<<<<<<<<<<<<<<<<<<<<<<<<<
>                                                          <
>     SKY/WX - SKY CONDITION/PRESENT WEATHER               <
>     TMP    - TEMPERATURE IN FAHRENHEIT                   <
>     DP     - DEWPOINT IN FAHRENHEIT                      <
>     RH     - RELATIVE HUMIDITY IN PERCENT                <
>     WIND   - DIRECTION AND SPEED IN MPH                  <
>     PRES   - MEAN SEA LEVEL PRESSURE IN INCHES OF HG     <
>     WCI    - WIND CHILL INDEX                            <
>     VSB    - VISIBILITY IN MILES                         <
>     HX     - HEAT INDEX                                  <
>     TC     - TEMPERATURE IN CELSIUS                      <
>     VRB    - VARIABLE WIND DIRECTION                     <
>                                                          <
>>>>>>>>>>>>>>>>>>>>>>>>>>>> KEY <<<<<<<<<<<<<<<<<<<<<<<<<<<





USA.gov is the U.S. government's official web portal to all federal, state and local government web resources and services.